Rockingham, NC

7:24 PM EST on January 18, 2018 (GMT -0500)
Rockingham

Weather History for KRCZ - May, 2013

Change the Weather History Date:

Thursday, May 2, 2013

  Actual Average (KHFF) Record (KHFF)
Temperature  
Mean Temperature 63 °F -  
Max Temperature 68 °F 76 °F 95 °F (2007)
Min Temperature 58 °F 56 °F 45 °F (2015)
Degree Days  
Heating Degree Days 2    
Growing Degree Days 13 (Base 50)    
Moisture  
Dew Point 58 °F    
Average Humidity 87    
Maximum Humidity 99    
Minimum Humidity 69    
Precipitation  
Precipitation 0.00 in - - ()
Sea Level Pressure  
Sea Level Pressure 30.25 in    
Wind  
Wind Speed 7 mph (NE)    
Max Wind Speed 12 mph    
Max Gust Speed 16 mph    
Visibility 9 miles    
Events      
Averages and records for this station are not official NWS values.
T = Trace of Precipitation, MM = Missing Value Source: NWS Daily Summary

Daily Weather History Graph

Daily Weather History Graph

Search for Another Location

Airport or City:

Trip Planner

Search our weather history database for the weather conditions in past years. The results will help you decide how hot, cold, wet, or windy it might be!

Date:

Astronomy

May. 02, 2013 Rise Set
Actual Time 6:27 AM EDT 8:05 PM EDT
Civil Twilight 6:00 AM EDT 8:32 PM EDT
Nautical Twilight 5:27 AM EDT 9:05 PM EDT
Astronomical Twilight 4:53 AM EDT 9:39 PM EDT
Moon 1:55 AM EDT (5/2) 1:09 PM EDT (5/2)
Length of Visible Light 14h 32m
Length of Day
13h 38m
Waning Gibbous, 48% of the Moon is Illuminated
May 2
Waning Gibbous
May 9
New
May 18
First Quarter
May 25
Full
May 31
Last Quarter

Hourly Weather History & Observations

Time (EDT) Temp. Dew Point Humidity Pressure Visibility Wind Dir Wind Speed Gust Speed Precip Events Conditions
12:15 AM 59.4 °F 59.2 °F 99% 30.26 in 7.0 mi NE 8.1 mph - N/A   Overcast
12:35 AM 59.4 °F 59.2 °F 99% 30.26 in 7.0 mi NE 9.2 mph - N/A   Overcast
12:55 AM 59.7 °F 59.2 °F 98% 30.26 in 7.0 mi ENE 8.1 mph - N/A   Overcast
1:15 AM 59.5 °F 59.0 °F 98% 30.25 in 7.0 mi NE 6.9 mph - N/A   Overcast
1:35 AM 59.9 °F 59.0 °F 97% 30.26 in 7.0 mi NE 5.8 mph - N/A   Overcast
1:55 AM 59.9 °F 59.0 °F 97% 30.26 in 7.0 mi NE 9.2 mph - N/A   Overcast
2:15 AM 59.9 °F 58.8 °F 96% 30.25 in 7.0 mi NE 8.1 mph - N/A   Overcast
2:35 AM 59.5 °F 58.5 °F 96% 30.25 in 7.0 mi ENE 4.6 mph - N/A   Overcast
2:55 AM 59.5 °F 58.5 °F 96% 30.25 in 7.0 mi NE 6.9 mph - N/A   Overcast
3:15 AM 59.5 °F 58.5 °F 96% 30.25 in 7.0 mi NE 6.9 mph - N/A   Overcast
3:35 AM 59.5 °F 58.5 °F 96% 30.25 in 7.0 mi ENE 4.6 mph - N/A   Overcast
3:55 AM 59.4 °F 58.3 °F 96% 30.25 in 7.0 mi ENE 5.8 mph - N/A   Overcast
4:15 AM 59.4 °F 58.3 °F 96% 30.25 in 7.0 mi ENE 5.8 mph - N/A   Overcast
4:35 AM 59.2 °F 58.1 °F 96% 30.24 in 10.0 mi NE 8.1 mph - N/A   Overcast
4:55 AM 59.0 °F 57.6 °F 95% 30.24 in 10.0 mi ENE 9.2 mph - N/A   Overcast
5:15 AM 59.0 °F 57.4 °F 94% 30.24 in 10.0 mi ENE 9.2 mph - N/A   Overcast
5:35 AM 59.0 °F 57.4 °F 94% 30.24 in 10.0 mi ENE 5.8 mph - N/A   Overcast
5:55 AM 59.0 °F 57.4 °F 94% 30.24 in 10.0 mi NE 6.9 mph - N/A   Overcast
6:15 AM 59.0 °F 57.2 °F 94% 30.24 in 10.0 mi NE 6.9 mph - N/A   Overcast
6:35 AM 59.0 °F 57.4 °F 94% 30.24 in 10.0 mi NE 6.9 mph - N/A   Overcast
6:55 AM 59.0 °F 57.4 °F 94% 30.24 in 10.0 mi NE 6.9 mph - N/A   Overcast
7:15 AM 59.0 °F 57.2 °F 94% 30.24 in 10.0 mi NE 8.1 mph - N/A   Overcast
7:35 AM 58.8 °F 57.0 °F 94% 30.25 in 10.0 mi NE 6.9 mph - N/A   Overcast
7:55 AM 59.0 °F 57.2 °F 94% 30.26 in 10.0 mi NE 8.1 mph - N/A   Overcast
8:15 AM 59.2 °F 57.2 °F 93% 30.26 in 10.0 mi NNE 9.2 mph - N/A   Overcast
8:35 AM 59.4 °F 57.2 °F 93% 30.27 in 10.0 mi NE 8.1 mph - N/A   Overcast
8:55 AM 59.5 °F 57.2 °F 92% 30.28 in 10.0 mi NE 6.9 mph - N/A   Overcast
9:15 AM 59.5 °F 57.2 °F 92% 30.28 in 10.0 mi NE 8.1 mph - N/A   Overcast
9:35 AM 59.9 °F 57.4 °F 91% 30.28 in 10.0 mi NE 8.1 mph - N/A   Overcast
9:55 AM 60.3 °F 57.7 °F 91% 30.28 in 10.0 mi NE 5.8 mph - N/A   Overcast
10:15 AM 60.3 °F 57.7 °F 91% 30.28 in 10.0 mi NE 6.9 mph - N/A   Overcast
10:35 AM 60.8 °F 57.6 °F 89% 30.28 in 10.0 mi NE 6.9 mph - N/A   Overcast
10:55 AM 61.5 °F 57.9 °F 88% 30.28 in 10.0 mi ENE 5.8 mph - N/A   Overcast
11:15 AM 61.3 °F 57.7 °F 88% 30.28 in 10.0 mi NNE 6.9 mph - N/A   Overcast
11:35 AM 62.6 °F 58.1 °F 85% 30.28 in 10.0 mi NNE 5.8 mph - N/A   Overcast
11:55 AM 62.6 °F 58.1 °F 85% 30.28 in 10.0 mi NNE 5.8 mph - N/A   Overcast
12:35 PM 64.2 °F 57.6 °F 79% 30.28 in 10.0 mi NE 6.9 mph - N/A   Overcast
12:55 PM 64.6 °F 57.4 °F 77% 30.28 in 10.0 mi NE 6.9 mph - N/A   Overcast
1:15 PM 64.8 °F 57.4 °F 77% 30.28 in 10.0 mi NE 10.4 mph 16.1 mph N/A   Overcast
1:35 PM 65.5 °F 57.0 °F 74% 30.28 in 10.0 mi NE 11.5 mph - N/A   Overcast
1:55 PM 65.3 °F 57.2 °F 75% 30.28 in 10.0 mi NE 4.6 mph 16.1 mph N/A   Overcast
2:15 PM 66.4 °F 57.6 °F 73% 30.27 in 10.0 mi NE 9.2 mph - N/A   Overcast
2:35 PM 67.3 °F 57.6 °F 71% 30.27 in 10.0 mi NE 9.2 mph - N/A   Overcast
2:55 PM 67.1 °F 57.6 °F 71% 30.27 in 10.0 mi NE 5.8 mph - N/A   Overcast
3:15 PM 66.2 °F 57.4 °F 73% 30.27 in 10.0 mi NE 6.9 mph - N/A   Overcast
3:35 PM 66.6 °F 57.9 °F 74% 30.26 in 10.0 mi ENE 4.6 mph - N/A   Overcast
3:55 PM 66.6 °F 57.6 °F 73% 30.25 in 10.0 mi ENE 4.6 mph - N/A   Overcast
4:15 PM 68.4 °F 57.9 °F 69% 30.24 in 10.0 mi ENE 6.9 mph - N/A   Overcast
4:35 PM 68.5 °F 57.9 °F 69% 30.23 in 10.0 mi NE 6.9 mph - N/A   Overcast
4:55 PM 67.8 °F 58.3 °F 71% 30.23 in 10.0 mi NNE 8.1 mph - N/A   Overcast
5:15 PM 66.2 °F 58.3 °F 76% 30.23 in 10.0 mi NE 8.1 mph - N/A   Overcast
5:35 PM 66.0 °F 58.1 °F 76% 30.23 in 10.0 mi ENE 9.2 mph - N/A   Overcast
5:55 PM 65.1 °F 58.6 °F 79% 30.23 in 10.0 mi NE 8.1 mph - N/A   Overcast
6:15 PM 64.6 °F 59.0 °F 82% 30.23 in 10.0 mi ENE 6.9 mph - N/A   Overcast
6:35 PM 64.0 °F 58.8 °F 83% 30.22 in 10.0 mi ENE 8.1 mph - N/A   Overcast
6:55 PM 63.7 °F 58.6 °F 84% 30.22 in 10.0 mi NE 6.9 mph - N/A   Overcast
7:15 PM 63.1 °F 58.8 °F 86% 30.22 in 7.0 mi NE 8.1 mph - N/A   Overcast
7:35 PM 62.6 °F 58.6 °F 87% 30.23 in 10.0 mi NE 4.6 mph - N/A   Overcast
7:55 PM 62.4 °F 58.5 °F 87% 30.23 in 10.0 mi NE 6.9 mph - N/A   Overcast
8:15 PM 62.4 °F 58.5 °F 87% 30.24 in 10.0 mi ENE 4.6 mph - N/A   Overcast
8:35 PM 62.2 °F 58.3 °F 87% 30.24 in 10.0 mi NE 6.9 mph - N/A   Overcast
8:55 PM 62.1 °F 58.1 °F 87% 30.24 in 10.0 mi NE 9.2 mph - N/A   Overcast
9:15 PM 61.9 °F 57.7 °F 86% 30.24 in 10.0 mi NE 9.2 mph - N/A   Overcast
9:35 PM 61.9 °F 57.4 °F 85% 30.24 in 10.0 mi NE 4.6 mph - N/A   Overcast
9:55 PM 61.9 °F 57.2 °F 85% 30.24 in 10.0 mi NE 6.9 mph - N/A   Overcast
10:15 PM 61.7 °F 56.7 °F 84% 30.25 in 10.0 mi NE 4.6 mph - N/A   Overcast
10:35 PM 61.7 °F 56.5 °F 83% 30.25 in 10.0 mi NE 5.8 mph - N/A   Overcast
10:55 PM 61.7 °F 56.3 °F 82% 30.24 in 10.0 mi NNE 4.6 mph - N/A   Overcast
11:15 PM 61.3 °F 56.3 °F 83% 30.23 in 10.0 mi NE 5.8 mph - N/A   Overcast
11:35 PM 60.8 °F 55.9 °F 84% 30.23 in 10.0 mi NE 4.6 mph - N/A   Mostly Cloudy
11:55 PM 59.9 °F 55.8 °F 86% 30.22 in 10.0 mi NE 5.8 mph - N/A   Scattered Clouds